Content
SEND FEEDBACK

Daily
Averages
Monthly
Summary
United States of America

SOLVANG, CALIFORNIA


Home > North America > United States > California
Elevation: 986 feet     Latitude: 34 37N     Longitude: 119 58W

WEATHER
 
SELECT A DAY
Number of Records: 59,867;   Date Range: 3/14/95 - 9/29/14
 
SHARE

PRINT THIS DATA

[ ← Previous Day ]
WEATHER ALMANAC - FEBRUARY 5, 2013
[ Next Day → ]
[ °C ]   °F
Weather ElementAverageHighLow
Temperature46.5 °F51.8 °F (3:35 pm)42.8 °F (5:55 am)
Dewpoint44.4 °F48.2 °F (1:55 pm)42.8 °F (1:55 am)
Humidity92.7 %100 % (12:35 am)76 % (3:55 pm)
Barometer30.06 in30.12 in (9:55 am)30.03 in (3:35 am)
Wind Speed2.1 mph8.1 mph (7:55 pm)
Weather ElementAverage
Visibility5 mi
Wind DirectionESE (123.4 °)

Weather ElementTotal
Precipitation---
Heating Degree Days17.7 (Base 65)
Averaged from 71 records on February 5, 2013
WEATHER CONDITIONS BREAKOUT
WIND DIRECTION BREAKOUT
WEATHER BY HOUR - FEBRUARY 5, 2013
[ °C ]   °F
Local TimeTemperatureDewpointHumidityBarometerVisibilityWind DirectionWind SpeedGust SpeedPrecipitationEventsConditions
12:35 AM44.6 °F44.6 °F100 %30.07 in0.2 miCalmFogFog
12:55 AM44.6 °F44.6 °F100 %30.07 in0.2 miCalmFogFog
1:15 AM46.4 °F44.6 °F93 %30.06 in0.2 miCalmFogFog
1:35 AM44.6 °F44.6 °F100 %30.05 in0.2 miCalmFogFog
1:55 AM44.6 °F42.8 °F93 %30.05 in0.5 miNNW (340°)4.6 mphFogFog
2:15 AM44.6 °F42.8 °F93 %30.05 in0.8 miNorth (350°)3.5 mphOvercast
2:35 AM44.6 °F42.8 °F93 %30.05 in0.8 miNorth (350°)4.6 mphOvercast
2:55 AM44.6 °F42.8 °F93 %30.05 in0.8 miNNW (340°)3.5 mphOvercast
3:15 AM44.6 °F42.8 °F93 %30.04 in0.5 miNNE (20°)3.5 mphFogFog
3:35 AM44.6 °F42.8 °F93 %30.03 in0.2 miCalmFogFog
3:55 AM44.6 °F44.6 °F100 %30.04 in0.5 miCalmFogFog
4:15 AM44.6 °F42.8 °F93 %30.04 in0.5 miWest (280°)4.6 mphFogFog
4:35 AM44.6 °F42.8 °F93 %30.04 in0.5 miNorth (10°)3.5 mphFogFog
4:55 AM44.6 °F42.8 °F93 %30.04 in0.5 miCalmFogFog
5:15 AM44.6 °F42.8 °F93 %30.04 in0.8 miCalmOvercast
5:35 AM44.6 °F42.8 °F93 %30.03 in0.8 miEast (80°)3.5 mphOvercast
5:55 AM42.8 °F42.8 °F100 %30.04 in0.8 miCalmOvercast
6:15 AM42.8 °F42.8 °F100 %30.05 in1.0 miESE (110°)3.5 mphOvercast
6:35 AM42.8 °F42.8 °F100 %30.05 in3.0 miEast (100°)3.5 mphOvercast
6:55 AM42.8 °F42.8 °F100 %30.05 in2.0 miESE (110°)3.5 mphOvercast
7:15 AM42.8 °F42.8 °F100 %30.06 in2.0 miCalmOvercast
7:35 AM42.8 °F42.8 °F100 %30.07 in1.5 miCalmOvercast
7:55 AM42.8 °F42.8 °F100 %30.08 in0.5 miCalmFogFog
8:15 AM42.8 °F42.8 °F100 %30.08 in0.5 miCalmFogFog
8:35 AM42.8 °F42.8 °F100 %30.10 in0.2 miCalmFogFog
8:55 AM42.8 °F42.8 °F100 %30.10 in1.2 miCalmOvercast
9:15 AM42.8 °F42.8 °F100 %30.10 in2.0 miCalmOvercast
9:35 AM42.8 °F42.8 °F100 %30.10 in2.5 miCalmOvercast
9:55 AM44.6 °F42.8 °F93 %30.12 in1.2 miCalmOvercast
10:15 AM44.6 °F44.6 °F100 %30.12 in0.8 miCalmOvercast
10:35 AM44.6 °F44.6 °F100 %30.11 in0.8 miCalmOvercast
10:55 AM44.6 °F44.6 °F100 %30.12 in1.0 miCalmOvercast
11:15 AM46.4 °F44.6 °F93 %30.11 in1.2 miCalmOvercast
11:35 AM46.4 °F46.4 °F100 %30.11 in1.5 miCalmOvercast
11:55 AM46.4 °F46.4 °F100 %30.10 in1.8 miCalmOvercast
12:15 PM46.4 °F46.4 °F100 %30.09 in2.0 miCalmOvercast
12:35 PM46.4 °F46.4 °F100 %30.08 in2.0 miCalmOvercast
12:55 PM46.4 °F46.4 °F100 %30.07 in2.0 miCalmOvercast
1:15 PM48.2 °F46.4 °F93 %30.07 in5.0 miCalmOvercast
1:35 PM48.2 °F46.4 °F93 %30.06 in7.0 miCalmOvercast
1:55 PM50.0 °F48.2 °F94 %30.06 in7.0 miCalmOvercast
2:15 PM50.0 °F48.2 °F94 %30.05 in10.0 miNorth (350°)4.6 mphOvercast
2:35 PM50.0 °F48.2 °F94 %30.05 in10.0 miNW (320°)3.5 mphOvercast
2:55 PM50.0 °F46.4 °F87 %30.05 in10.0 miWNW (300°)5.8 mphOvercast
3:15 PM50.0 °F46.4 °F87 %30.05 in10.0 miCalmOvercast
3:35 PM51.8 °F46.4 °F82 %30.04 in10.0 miCalmOvercast
3:55 PM51.8 °F44.6 °F76 %30.03 in10.0 miNorth (350°)3.5 mphOvercast
4:15 PM51.8 °F44.6 °F76 %30.04 in10.0 miNNW (340°)5.8 mphOvercast
4:35 PM51.8 °F44.6 °F76 %30.04 in10.0 miNNW (340°)4.6 mphOvercast
4:55 PM51.8 °F46.4 °F82 %30.04 in10.0 miNW (310°)4.6 mphOvercast
5:15 PM50.0 °F44.6 °F82 %30.05 in10.0 miNW (310°)4.6 mphOvercast
5:35 PM50.0 °F44.6 °F82 %30.04 in10.0 miWNW (300°)4.6 mphOvercast
5:55 PM50.0 °F44.6 °F82 %30.04 in10.0 miWNW (300°)4.6 mphOvercast
6:15 PM50.0 °F44.6 °F82 %30.04 in10.0 miNNW (330°)3.5 mphOvercast
6:35 PM50.0 °F44.6 °F82 %30.05 in10.0 miWNW (300°)5.8 mphOvercast
6:55 PM50.0 °F44.6 °F82 %30.05 in10.0 miNW (310°)6.9 mphOvercast
7:15 PM50.0 °F44.6 °F82 %30.06 in10.0 miNNW (330°)4.6 mphOvercast
7:35 PM50.0 °F44.6 °F82 %30.06 in10.0 miNW (310°)5.8 mphOvercast
7:55 PM48.2 °F44.6 °F87 %30.06 in10.0 miNW (320°)8.1 mphOvercast
8:15 PM48.2 °F44.6 °F87 %30.07 in10.0 miNW (320°)4.6 mphOvercast
8:35 PM48.2 °F44.6 °F87 %30.07 in10.0 miWest (270°)5.8 mphOvercast
8:55 PM46.4 °F44.6 °F93 %30.06 in10.0 miWest (270°)4.6 mphOvercast
9:15 PM46.4 °F44.6 °F93 %30.07 in10.0 miWest (270°)3.5 mphOvercast
9:35 PM46.4 °F44.6 °F93 %30.07 in10.0 miWest (270°)3.5 mphOvercast
9:55 PM46.4 °F44.6 °F93 %30.07 in10.0 miCalmOvercast
10:15 PM46.4 °F44.6 °F93 %30.06 in10.0 miCalmOvercast
10:35 PM46.4 °F44.6 °F93 %30.05 in10.0 miSSE (150°)3.5 mphOvercast
10:55 PM46.4 °F44.6 °F93 %30.06 in10.0 miCalmOvercast
11:15 PM46.4 °F44.6 °F93 %30.06 in10.0 miCalmOvercast
11:35 PM46.4 °F44.6 °F93 %30.06 in10.0 miCalmOvercast
11:55 PM46.4 °F44.6 °F93 %30.06 in10.0 miCalmOvercast
Hourly data recorded from KIZA, located miles away from Solvang, California







STORIES FROM OUR PARTNERS